LEMUR-2-ANGELA (42752 NORAD) Tracking and Keplerian Element Data

This shows tracking and keplerian element data for the satellite.

Feedback or suggestion? Click here.




ElementValue
Catalog42752
NameLEMUR-2-ANGELA
Epoch Orbit32492
Epoch Day84.82999455
Epoch Year2023
RAAN279.1402
Inclination51.609
Eccentricity0.0009688
Argument of Perigee265.0046
Mean Anonmoly94.9855
Mean Motion15.92338135
Decay Rate0.00693999
L11 42752U 17019B 23084.82999455 .00693999 20640-3 20070-2 0 9997
L22 42752 51.6090 279.1402 0009688 265.0046 94.9855 15.92338135324922



Live tracking and technical data element details for LEMUR-2-ANGELA (NORAD 42752). LEMUR-2-ANGELA can be tracked NOW for your location showing map with azimuth and elevation plus other details from your city location.







IsCatalogInMostPopularTable: catalog: 42752, numindb: 521
Update: records affected: 1



GetName: 42752 LEMUR-2-ANGELA

Hit Count: updated at: Thu, 22 May 2025 03:48:01 GMT